STARLINK-6166, 56383

Orbit data source: Space-Track

STARLINK-6166, 56383 is a payload satellite owned by SpaceX/Seattle (US) in LEO that was launched on Thu, 04 May 2023 UTC via an FALCON 9 launch vehicle from the Air Force Eastern Test Range (AFETR). Payload-class satellites include a variety of spacecraft equipped with specific instruments for various scientific and technological missions. These include communications satellites like Starlink; space stations such as the ISS; scientific satellites like the Hubble; Earth observation satellites from companies like Planet Labs, Umbra, and HawkEye 360; GPS; miniature CubeSats for education and research; and military/defense satellites.

Loading next visibility...
Identifier
56383, 2023-061K
Orbit
LEO
Country
Flag of USUS
Related business
Manufacturer
SpaceX/Seattle
Mission
Operational Commercial Communications
Bus & Motor
STARLINK, Unknown motor
Mass
305 kg wet, ~290 kg dry
Launch date (UTC)
2023-05-04 (3 years ago)
Launch vehicle
FALCON 9
Launch site
Air Force Eastern Test Range (AFETR)
Object type
Payload
Rocket body
Debris
Shape & HBR
Box + 1 Pan, 10.1 m
Radar Cross Section
11.087 m², Large (>1 m²)

Expand to show TLE details & history
Last TLE update: 3 days ago

TLE from 3 days ago
0 STARLINK-6166
1 56383U 23061K   26170.92882713  .00004848  00000-0  18569-3 0  9999
2 56383  43.0039 340.6948 0001633 265.8793  94.1872 15.27563734172388
Epoch: 2026-06-19T22:17Z
TLE epoch observation values (Epoch: 2026-06-19T22:17:30.664Z)
Latitude
-0°
Longitude
98.16627°
Altitude
482.956 km
Speed
7.626 km/s
True Right ascension
22h 42m 46s
True Declination
0° 00' 00"
Sunlit
Object was in daylight at epoch
Visualization orbit readout
Latitude
Unknown
Longitude
Unknown
Altitude
Unknown
Speed
Unknown
Apparent Right ascension
Unknown
Apparent Declination
Unknown
Sunlit
N/A
Visualization observer readout
Local Sidereal Time
21:33:27
Azimuth
Unknown
Elevation
Unknown
Doppler factor
Unknown
Orbital elements
Apogee altitude
486.163 km
Perigee altitude
483.922 km
Semi-major axis
6,863.179 km
Eccentricity
0.00016
Inclination
43.0039°
RAAN
340.6948°
Arg. of periapsis
265.8793°
True anomaly
94.20586°
Mean anomaly
94.1872°
Eccentric anomaly
94.19653°
Mean motion
3.81729 °/min
Orbital period
94.31 mins
BSTAR
0.00018569
Loading maneuver chart data...
Computing Atmospheric mass density...
Loading historical data...
Loading historical data...
Loading historical data...
Loading historical data...
Loading historical data...
Loading historical data...
Loading historical data...

Documentation

Showing up to 5 results
|